Location: Henham
(51.9333°N, 0.2500°E)
Time: 23:05:49
(UTC+00:00)

ATLAS 3B R/B - Pass Details

Date: 23 October 2019
Orbit: 1029 x 1166 km, 63.8° (Epoch: 10 November)

Event Time Altitude Azimuth Distance (km) Brightness Sun altitude
Rises 18:40:45 0° 196° (SSW) 3,821 5.8 -17.9°
Reaches altitude 10° 18:43:30 10° 190° (S) 2,855 5.0 -18.3°
Maximum altitude 18:49:46 44° 121° (ESE) 1,407 2.9 -19.2°
Enters shadow 18:52:29 30° 72° (ENE) 1,771 3.3 -19.7°
